Location: Clarion
(42.7316°N, 93.7330°W)
Time: 08:38:17
(UTC+00:00)

CZ-2C R/B - Pass Details

Date: 22 April 2026
Orbit: 781 x 868 km, 98.4° (Epoch: 17 May)

Event Time Altitude Azimuth Distance (km) Brightness Sun altitude
Exits shadow 06:34:43 41° 350° (N) 1,218 3.8 -34.8°
Drops below altitude 10° 06:38:08 10° 348° (NNW) 2,456 5.8 -34.8°
Sets 06:40:29 0° 348° (NNW) 3,381 6.7 -34.7°
